Location: Fours
(44.3167°N, 6.7000°E)
Time: 09:41:46
(UTC+00:00)

Cosmos 1703 - Pass Details

Date: 16 October 2021
Orbit: 521 x 539 km, 82.5° (Epoch: 02 December)

Event Time Altitude Azimuth Distance (km) Brightness Sun altitude
Rises 18:01:24 0° 353° (N) 2,698 6.9 -14.0°
Reaches altitude 10° 18:03:35 10° 356° (N) 1,799 6.0 -14.4°
Maximum altitude 18:07:31 69° 80° (E) 574 3.1 -15.1°
Drops below altitude 10° 18:11:24 10° 165° (SSE) 1,772 5.7 -15.8°
Sets 18:13:32 0° 167° (SSE) 2,654 6.7 -16.2°
